Regional Weather Roundup
Issued by NWS Goodland, KS

Home | Current Version | Previous Version | Graphics & Text | Print | Product List | Glossary On
Versions: 1 2 3 4 5 6 7 8 9 10 11 12 13 14 15 16 17 18 19 20 21 22 23 24 25 26 27 28 29 30 31 32 33 34 35 36 37 38 39 40 41 42 43 44 45 46 47 48 49 50
000
ASUS43 KGLD 281359
RWRGLD

GOODLAND FORECAST AREA HOURLY WEATHER ROUNDUP
NATIONAL WEATHER SERVICE GOODLAND KS
800 AM MDT TUE APR 28 2015

...OFFICIAL OBSERVATIONS...

CITY           SKY/WX    TMP DP  RH WIND       PRES   REMARKS
GOODLAND KS    MOSUNNY   44  41  89 N14       30.33R
HILL CITY KS   MOSUNNY   51  42  71 N13       30.28R
IMPERIAL NEB   MOSUNNY   47  39  74 N15       30.34R
MCCOOK NEB     MOSUNNY   49  42  77 N13       30.31S
AKRON CO       CLOUDY    44  41  89 NE7       30.35S
BURLINGTON CO  MOSUNNY   44  39  82 N15       30.33R
LIMON CO       CLOUDY    43  37  79 N6        30.35R
$$

...UNOFFICIAL OBSERVATIONS...

CITY           SKY/WX    TMP DP  RH WIND       PRES   REMARKS
COLBY KS       SUNNY     46  45  93 N16       30.32R
GOVE KS          N/A     47  32  56 MISG        N/A
LENORA KS        N/A     47  32  56 MISG        N/A
NORTON KS      SUNNY     48  41  76 N9        30.28S
SHARON SPRINGS   N/A     44  41  89 N5          N/A
TRIBUNE KS     SUNNY     46  43  87 N8        30.32R
KIT CARSON CO    N/A     45  40  82 MISG        N/A
YUMA CO          N/A     45  42  89 NE12        N/A
$$



USA.gov is the U.S. government's official web portal to all federal, state and local government web resources and services.